This is the latest recevied weather packets stored in our database for station/object IQ5KG. If no packets are shown the sender has not sent any weather packets the latest 10 day(s).
| Time | Temp. | Humidity | Pressure | Rain* | Wind** | Luminosity | Snow |
|---|---|---|---|---|---|---|---|
| 1777604597 | 12.22° C | 46% | 1023.6 hPa | 0 mm | - | - | - |
| 1777603700 | 12.22° C | 45% | 1023.6 hPa | 0 mm | - | - | - |
| 1777602800 | 12.78° C | 44% | 1023.5 hPa | 0 mm | - | - | - |
| 1777601901 | 12.78° C | 43% | 1023.7 hPa | 0 mm | - | - | - |
| 1777601001 | 12.22° C | 43% | 1023.5 hPa | 0 mm | - | - | - |
| 1777600102 | 12.22° C | 42% | 1023.9 hPa | 0 mm | - | - | - |
| 1777599203 | 12.78° C | 40% | 1024 hPa | 0 mm | - | - | - |
| 1777598304 | 13.33° C | 37% | 1024 hPa | 0 mm | - | - | - |
| 1777597405 | 12.78° C | 37% | 1023.9 hPa | 0 mm | - | - | - |
| 1777596505 | 12.78° C | 37% | 1023.9 hPa | 0 mm | - | - | - |
| 1777595608 | 13.33° C | 35% | 1023.9 hPa | 0 mm | - | - | - |
| 1777594707 | 13.33° C | 35% | 1023.9 hPa | 0 mm | - | - | - |
| 1777593808 | 13.33° C | 34% | 1023.8 hPa | 0 mm | - | - | - |
| 1777592909 | 12.78° C | 35% | 1023.5 hPa | 0 mm | - | - | - |
| 1777592010 | 12.22° C | 37% | 1023.5 hPa | 0 mm | - | - | - |
| 1777591111 | 12.22° C | 37% | 1023.6 hPa | 0 mm | - | - | - |
| 1777590212 | 12.78° C | 35% | 1023.5 hPa | 0 mm | - | - | - |
| 1777589313 | 12.78° C | 35% | 1023.4 hPa | 0 mm | - | - | - |
| 1777588414 | 13.33° C | 34% | 1023.3 hPa | 0 mm | - | - | - |
| 1777587515 | 12.78° C | 35% | 1023.1 hPa | 0 mm | - | - | - |
| 1777586615 | 12.78° C | 34% | 1023.1 hPa | 0 mm | - | - | - |
| 1777585715 | 13.33° C | 34% | 1022.9 hPa | 0 mm | - | - | - |
| 1777584817 | 13.33° C | 34% | 1022.8 hPa | 0 mm | - | - | - |
| 1777583917 | 12.78° C | 32% | 1022.8 hPa | 0 mm | - | - | - |
| 1777583019 | 12.22° C | 41% | 1022.8 hPa | 0 mm | - | - | - |
* Rain latest hour (hover to see other rain measurements)
** Current wind speed in m/s (hover to see current wind gust speed)